[[{"header":{"parameterUnit":"m.s-1","parameterCategory":1,"la1":30.2991,"la2":30.254,"lo1":-89.0895,"lo2":-89.0444,"dy":0.0017,"dx":0.0017,"nx":28,"ny":28,"refTime":"2024-12-20T09:00:00:Z","depth":0,"parameterNumber":2,"parameterNumberName":"U-component_of_WINDS"},"data":[0,0,0,0,0,0,0,0,0,0,0,0,0,0,0,0,0,0,0,0,0,0,0,0,0,0,0,0,0,0,0,0,0,0,0,0,0,0,0,0,0,0,0,0,0,0,0,0,0,0,0,0,0,0,0,0,0,0,-0.3335,-0.3336,0,-0.3412,-0.3413,-0.3414,-0.3399,-0.3398,-0.3396,-0.3395,-0.3478,-0.3481,-0.3485,0,0,0,0,0,0,0,0,0,0,0,0,0,-0.3176,-0.3179,-0.3335,-0.3336,-0.3337,-0.3412,-0.3413,-0.3414,-0.3399,-0.3397,-0.3396,-0.3394,-0.3477,-0.3481,-0.3485,0,0,0,0,0,0,0,0,0,0,0,0,0,-0.3249,-0.318,-0.3335,-0.3338,-0.3339,-0.3412,-0.3413,-0.3415,-0.34,-0.3397,-0.3395,-0.3393,-0.3475,-0.3481,-0.3486,-0.3561,0,0,-0.3502,-0.3504,0,0,0,0,0,0,0,0,-0.3245,-0.3255,-0.3337,-0.3338,-0.334,-0.3394,-0.3388,-0.3464,-0.34,-0.3377,-0.3395,-0.3392,-0.3452,-0.3459,-0.3478,-0.3565,-0.3569,-0.3502,-0.3506,-0.3508,-0.3509,0,0,0,0,0,0,0,-0.324,-0.3251,-0.3366,-0.3338,-0.334,-0.3337,-0.3345,-0.3402,-0.3426,-0.3379,-0.3378,-0.3387,-0.3452,-0.3473,-0.348,-0.357,-0.3502,-0.3507,-0.351,-0.3512,-0.3721,-0.3723,0,0,0,0,0,0,-0.3233,-0.3247,-0.3363,-0.3368,-0.3286,-0.3341,-0.335,-0.3379,-0.3425,-0.343,-0.3389,-0.3386,-0.3465,-0.3474,-0.3483,-0.3574,-0.3508,-0.3513,-0.3516,-0.3719,-0.3722,-0.3724,0,0,0,0,0,0,-0.323,-0.3244,-0.336,-0.3307,-0.3322,-0.3346,-0.3378,-0.3381,-0.3402,-0.3432,-0.3437,-0.3406,-0.3464,-0.3476,-0.3541,-0.3577,-0.3515,-0.352,-0.3716,-0.372,-0.3723,-0.3757,0,0,0,0,0,0,-0.3225,-0.3242,-0.3271,-0.3308,-0.3325,-0.3417,-0.3381,-0.3384,-0.3411,-0.3408,-0.3449,-0.3454,-0.3463,-0.3533,-0.3547,-0.3583,-0.3524,-0.3713,-0.3718,-0.3722,-0.3753,-0.3762,-0.3769,0,0,0,0,0,-0.322,-0.3279,-0.3273,-0.3287,-0.3361,-0.3419,-0.3429,-0.3437,-0.3414,-0.3443,-0.3462,-0.3453,-0.357,-0.354,-0.3555,-0.3594,-0.3711,-0.3716,-0.3721,-0.375,-0.376,-0.3769,0,0,0,0,0,0,-0.3247,-0.3284,-0.3277,-0.335,-0.3381,-0.3416,-0.3454,-0.3447,-0.3487,-0.3483,-0.3492,-0.3501,-0.3568,-0.3587,-0.3553,-0.3668,-0.3637,-0.3646,-0.3654,-0.3664,-0.3672,-0.3667,-0.3529,0,0,0,0,0,-0.3261,-0.3304,-0.3334,-0.3395,-0.3411,-0.3429,-0.3455,-0.3458,-0.3491,-0.3505,-0.3529,-0.3562,-0.3607,-0.3636,-0.3679,-0.3755,-0.3764,-0.3788,-0.3796,-0.3802,-0.3811,-0.3852,-0.3863,-0.3742,-0.3742,-0.3741,0,0,-0.3292,-0.3317,-0.3344,-0.3402,-0.3426,-0.3471,-0.3441,-0.349,-0.3524,-0.3513,-0.3576,-0.3595,-0.3633,-0.3704,-0.3736,-0.3722,-0.3846,-0.3809,-0.3814,-0.3819,-0.3859,-0.387,-0.388,-0.3745,-0.3745,-0.3744,0,0,-0.3371,-0.3394,-0.3447,-0.3472,-0.3508,-0.352,-0.3532,-0.3568,-0.3579,-0.3642,-0.3634,-0.3675,-0.3751,-0.3778,-0.3802,-0.3888,-0.3882,-0.3902,-0.3944,-0.3984,-0.3994,-0.4002,-0.4034,-0.4045,-0.3909,-0.3909,-0.3909,0,-0.3405,-0.3472,-0.3476,-0.3525,-0.3551,-0.354,-0.3595,-0.3619,-0.3668,-0.3686,-0.3669,-0.3763,-0.3788,-0.3865,-0.3886,-0.3905,-0.392,-0.3898,-0.3992,-0.4,-0.4008,-0.4039,-0.405,-0.3911,-0.3911,-0.3911,-0.3911,0,-0.3512,-0.3558,-0.3597,-0.3643,-0.3672,-0.3724,-0.3737,-0.3766,-0.3766,-0.3779,-0.3843,-0.3872,-0.392,-0.3938,-0.3939,-0.4015,-0.4005,-0.3989,-0.3959,-0.4022,-0.4051,-0.4062,-0.3915,-0.3914,-0.3913,-0.3913,0,0,-0.3614,-0.3659,-0.3673,-0.3694,-0.3732,-0.3768,-0.3819,-0.3864,-0.389,-0.3923,-0.3967,-0.403,-0.4015,-0.4042,-0.4045,-0.4081,-0.4147,-0.4061,-0.4062,-0.4077,-0.4234,-0.4246,-0.426,-0.4142,-0.4144,-0.4146,-0.4231,0,-0.3697,-0.3786,-0.379,-0.3871,-0.3914,-0.3903,-0.3947,-0.3976,-0.3989,-0.4028,-0.4042,-0.4087,-0.4064,-0.408,-0.4114,-0.4132,-0.4179,-0.4126,-0.4184,-0.4186,-0.4177,-0.4274,-0.4289,-0.4368,-0.4242,-0.4244,-0.4245,0,-0.3807,-0.3842,-0.3927,-0.3958,-0.3976,-0.4016,-0.4057,-0.4094,-0.4126,-0.4133,-0.4161,-0.4159,-0.4211,-0.4177,-0.425,-0.4213,-0.4236,-0.4248,-0.4252,-0.4259,-0.4221,-0.4286,-0.4393,-0.4405,-0.4263,-0.4261,-0.426,0,-0.3874,-0.3942,-0.4002,-0.402,-0.4057,-0.4085,-0.4102,-0.4132,-0.4158,-0.4194,-0.4211,-0.4253,-0.4276,-0.4309,-0.4318,-0.4292,-0.439,-0.4357,-0.4399,-0.4398,-0.4422,-0.4421,-0.4536,-0.4434,-0.4434,-0.4434,-0.4433,0,-0.3968,-0.4021,-0.4032,-0.407,-0.4128,-0.4132,-0.419,-0.4205,-0.4231,-0.4271,-0.4264,-0.4302,-0.431,-0.435,-0.4357,-0.4416,-0.4427,-0.4434,-0.4436,-0.4436,-0.4435,-0.4453,-0.4449,-0.4437,-0.4436,-0.4436,-0.4435,0,-0.4054,-0.4064,-0.4128,-0.4157,-0.4165,-0.4208,-0.4233,-0.4268,-0.4279,-0.433,-0.4342,-0.4359,-0.4405,-0.4416,-0.4472,-0.4477,-0.4547,-0.4543,-0.4536,-0.4536,-0.4578,-0.4575,-0.471,-0.4729,-0.4613,-0.4614,-0.4615,0,-0.4115,-0.4155,-0.4187,-0.4213,-0.423,-0.4272,-0.4298,-0.4302,-0.433,-0.4368,-0.4399,-0.4444,-0.448,-0.4554,-0.4572,-0.4614,-0.4612,-0.4656,-0.4618,-0.4617,-0.4614,-0.4612,-0.4616,-0.4664,-0.4665,-0.4666,-0.4667,0,-0.4221,-0.4223,-0.4261,-0.4299,-0.433,-0.4361,-0.4391,-0.4413,-0.4421,-0.4452,-0.4498,-0.4526,-0.4581,-0.4626,-0.4668,-0.4686,-0.4679,-0.4678,-0.4691,-0.4692,-0.4687,-0.4692,-0.4558,-0.4676,-0.4675,-0.4675,-0.4674,-0.4674,-0.4297,-0.4332,-0.436,-0.4402,-0.4424,-0.4451,-0.4485,-0.4499,-0.4537,-0.4582,-0.4582,-0.4632,-0.4661,-0.4716,-0.4737,-0.4776,-0.4763,-0.478,-0.4785,-0.479,-0.4794,-0.4679,-0.4784,-0.4783,-0.4783,-0.4783,-0.4783,0,-0.4405,-0.4421,-0.4459,-0.45,-0.4532,-0.4519,-0.4551,-0.458,-0.4624,-0.4651,-0.4686,-0.4738,-0.4781,-0.4801,-0.4843,-0.4871,-0.4869,-0.4882,-0.4881,-0.4886,-0.4803,-0.4789,-0.4883,-0.4883,-0.4883,-0.4883,-0.4883,-0.4883,-0.4464,-0.4522,-0.4527,-0.4596,-0.4613,-0.4661,-0.468,-0.4705,-0.4727,-0.4785,-0.482,-0.4832,-0.4856,-0.49,-0.4938,-0.4943,-0.496,-0.4975,-0.4979,-0.4902,-0.4892,-0.4882,-0.4869,-0.4978,-0.4978,-0.5058,-0.5059,-0.5059]},{"header":{"parameterUnit":"m.s-1","parameterCategory":1,"la1":30.2991,"la2":30.254,"lo1":-89.0895,"lo2":-89.0444,"dy":0.0017,"dx":0.0017,"nx":28,"ny":28,"refTime":"2024-12-20T09:00:00:Z","depth":0,"parameterNumber":3,"parameterNumberName":"V-component_of_WINDS"},"data":[0,0,0,0,0,0,0,0,0,0,0,0,0,0,0,0,0,0,0,0,0,0,0,0,0,0,0,0,0,0,0,0,0,0,0,0,0,0,0,0,0,0,0,0,0,0,0,0,0,0,0,0,0,0,0,0,0,0,-7.4544,-7.4545,0,-7.4687,-7.4689,-7.469,-7.4595,-7.459,-7.4586,-7.4582,-7.4724,-7.4731,-7.4739,0,0,0,0,0,0,0,0,0,0,0,0,0,-7.4183,-7.419,-7.4544,-7.4545,-7.4547,-7.4687,-7.4689,-7.4691,-7.4595,-7.459,-7.4585,-7.458,-7.4721,-7.473,-7.474,0,0,0,0,0,0,0,0,0,0,0,0,0,-7.4334,-7.4192,-7.4543,-7.4517,-7.4516,-7.4686,-7.4689,-7.4691,-7.4597,-7.459,-7.4583,-7.4577,-7.4718,-7.4729,-7.4741,-7.4944,0,0,-7.4777,-7.4782,0,0,0,0,0,0,0,0,-7.4326,-7.4347,-7.4519,-7.4519,-7.4518,-7.4616,-7.4613,-7.4776,-7.4598,-7.4566,-7.4582,-7.4574,-7.4693,-7.4706,-7.4747,-7.4951,-7.4957,-7.4778,-7.4785,-7.479,-7.4794,0,0,0,0,0,0,0,-7.4315,-7.4341,-7.46,-7.4521,-7.4521,-7.4496,-7.451,-7.4644,-7.4664,-7.4568,-7.4561,-7.458,-7.4691,-7.4736,-7.475,-7.4959,-7.4778,-7.4788,-7.4795,-7.48,-7.5336,-7.5342,0,0,0,0,0,0,-7.4308,-7.4333,-7.4596,-7.4604,-7.4404,-7.4508,-7.4524,-7.4591,-7.4662,-7.4667,-7.4585,-7.4575,-7.4719,-7.4736,-7.4755,-7.4997,-7.479,-7.4801,-7.4808,-7.5328,-7.5337,-7.5345,0,0,0,0,0,0,-7.43,-7.4332,-7.459,-7.4467,-7.4498,-7.4521,-7.4598,-7.4598,-7.4642,-7.4676,-7.4678,-7.4628,-7.4715,-7.4738,-7.4898,-7.5001,-7.4806,-7.4817,-7.532,-7.5331,-7.5341,-7.5484,0,0,0,0,0,0,-7.429,-7.433,-7.4409,-7.4469,-7.4505,-7.4733,-7.4604,-7.4605,-7.4664,-7.4651,-7.4716,-7.4721,-7.4712,-7.4881,-7.491,-7.5013,-7.4826,-7.5311,-7.5325,-7.5338,-7.547,-7.5498,-7.5522,0,0,0,0,0,-7.4278,-7.4442,-7.4413,-7.4446,-7.4604,-7.4739,-7.4759,-7.4747,-7.4672,-7.4751,-7.4772,-7.4718,-7.4985,-7.4898,-7.493,-7.5038,-7.5304,-7.5321,-7.5337,-7.5458,-7.5493,-7.5522,0,0,0,0,0,0,-7.4392,-7.445,-7.4418,-7.4608,-7.4669,-7.4723,-7.4821,-7.4784,-7.4866,-7.4851,-7.4831,-7.4846,-7.5014,-7.5042,-7.4944,-7.5238,-7.5132,-7.5156,-7.5214,-7.5247,-7.5273,-7.5263,-7.4836,0,0,0,0,0,-7.4439,-7.4546,-7.459,-7.4752,-7.4785,-7.4799,-7.4857,-7.4842,-7.4904,-7.493,-7.4962,-7.5024,-7.5121,-7.5185,-7.5277,-7.5473,-7.5486,-7.5563,-7.559,-7.5611,-7.5631,-7.5737,-7.5772,-7.5398,-7.5398,-7.5397,0,0,-7.4537,-7.4582,-7.4651,-7.4777,-7.4823,-7.4932,-7.4821,-7.4941,-7.5022,-7.4947,-7.5101,-7.5127,-7.5194,-7.5373,-7.5454,-7.5402,-7.5737,-7.5631,-7.5648,-7.5657,-7.5757,-7.5792,-7.5824,-7.5409,-7.5407,-7.5405,0,0,-7.4773,-7.4818,-7.4959,-7.5007,-7.5079,-7.5087,-7.5121,-7.518,-7.5195,-7.5349,-7.5296,-7.539,-7.5558,-7.5608,-7.5655,-7.591,-7.5863,-7.594,-7.6076,-7.6179,-7.6208,-7.6234,-7.6325,-7.6357,-7.596,-7.596,-7.596,0,-7.4886,-7.505,-7.5035,-7.516,-7.5217,-7.5156,-7.5297,-7.5344,-7.5442,-7.5482,-7.5422,-7.5632,-7.5672,-7.5862,-7.5925,-7.5965,-7.6002,-7.5932,-7.6206,-7.6232,-7.6255,-7.6341,-7.6376,-7.5969,-7.5968,-7.5967,-7.5966,0,-7.5186,-7.53,-7.5405,-7.5502,-7.557,-7.5703,-7.5706,-7.5777,-7.5756,-7.5769,-7.5926,-7.5973,-7.6073,-7.6116,-7.6097,-7.6304,-7.6269,-7.6208,-7.6101,-7.63,-7.6381,-7.6413,-7.5981,-7.5978,-7.5976,-7.5973,0,0,-7.5497,-7.5585,-7.5624,-7.5667,-7.5741,-7.5829,-7.5958,-7.6057,-7.6117,-7.6186,-7.6293,-7.6437,-7.6381,-7.6435,-7.642,-7.651,-7.6708,-7.6438,-7.6439,-7.6487,-7.6939,-7.6984,-7.7023,-7.6678,-7.6684,-7.6689,-7.6933,0,-7.5737,-7.5964,-7.5954,-7.6166,-7.6271,-7.6214,-7.6326,-7.6383,-7.6399,-7.6489,-7.6505,-7.6608,-7.6526,-7.6559,-7.6646,-7.6666,-7.6799,-7.6648,-7.6776,-7.6781,-7.6762,-7.7065,-7.7114,-7.7342,-7.6964,-7.697,-7.6974,0,-7.6047,-7.6129,-7.6352,-7.641,-7.6454,-7.6555,-7.6645,-7.6732,-7.6795,-7.68,-7.6861,-7.6831,-7.6959,-7.6849,-7.7026,-7.6923,-7.6975,-7.6993,-7.7001,-7.7013,-7.689,-7.7085,-7.7414,-7.7448,-7.7023,-7.7019,-7.7015,0,-7.6253,-7.6417,-7.6572,-7.6611,-7.6683,-7.6756,-7.6789,-7.6845,-7.6905,-7.6983,-7.7021,-7.7113,-7.7162,-7.7233,-7.7228,-7.7148,-7.7407,-7.7296,-7.7413,-7.7414,-7.7471,-7.7467,-7.7813,-7.7504,-7.7503,-7.7503,-7.7502,0,-7.6522,-7.666,-7.6665,-7.6761,-7.6913,-7.69,-7.7051,-7.7076,-7.7127,-7.7224,-7.718,-7.7272,-7.726,-7.7352,-7.7349,-7.7495,-7.7518,-7.7524,-7.7522,-7.7529,-7.7528,-7.7562,-7.7546,-7.7512,-7.751,-7.7508,-7.7506,0,-7.6777,-7.6786,-7.6951,-7.7006,-7.7023,-7.7134,-7.718,-7.7269,-7.7281,-7.7405,-7.7433,-7.7451,-7.7558,-7.756,-7.7681,-7.7678,-7.7857,-7.7836,-7.7837,-7.7833,-7.795,-7.7939,-7.833,-7.8381,-7.8039,-7.8042,-7.8045,0,-7.6948,-7.7054,-7.7121,-7.7184,-7.7222,-7.7324,-7.7386,-7.7376,-7.7441,-7.752,-7.76,-7.7702,-7.7784,-7.7956,-7.7979,-7.8071,-7.8052,-7.8183,-7.8065,-7.8069,-7.8054,-7.8048,-7.8058,-7.8206,-7.821,-7.8213,-7.8215,0,-7.7252,-7.7251,-7.7342,-7.7436,-7.7511,-7.7583,-7.765,-7.7704,-7.7701,-7.7776,-7.7885,-7.7949,-7.8073,-7.8175,-7.8264,-7.8296,-7.8256,-7.8252,-7.8284,-7.8292,-7.8288,-7.8292,-7.79,-7.8243,-7.824,-7.8238,-7.8237,-7.8236,-7.747,-7.7561,-7.7623,-7.7726,-7.7775,-7.7839,-7.7926,-7.7949,-7.804,-7.8142,-7.813,-7.8251,-7.831,-7.8426,-7.8465,-7.8558,-7.8513,-7.8559,-7.8571,-7.8583,-7.8596,-7.8273,-7.8574,-7.8574,-7.8573,-7.8572,-7.8572,0,-7.7771,-7.7808,-7.7903,-7.7999,-7.808,-7.8036,-7.8107,-7.8177,-7.8285,-7.8344,-7.8426,-7.8551,-7.8649,-7.868,-7.8775,-7.8843,-7.8827,-7.8869,-7.8863,-7.8871,-7.8631,-7.8594,-7.888,-7.888,-7.888,-7.888,-7.888,-7.888,-7.7937,-7.8089,-7.8096,-7.8271,-7.8306,-7.8426,-7.8471,-7.8529,-7.8576,-7.8718,-7.88,-7.882,-7.8867,-7.8965,-7.9053,-7.9059,-7.9096,-7.9146,-7.9144,-7.8919,-7.8888,-7.8859,-7.8824,-7.9154,-7.9154,-7.9377,-7.9379,-7.938]}]]